Regional Weather Roundup
Issued by NWS

Home | Current Version | Previous Version | Text Only | Print | Product List | Glossary Off
Versions: 1 2 3 4 5 6 7 8 9 10 11 12 13 14 15 16 17 18 19 20 21 22 23 24 25 26 27 28 29 30 31 32 33 34 35 36 37 38 39 40 41 42 43 44 45 46 47 48 49 50

000
ASUS45 KBOI 100810
RWRID

IDAHO REGIONAL WEATHER ROUNDUP
NATIONAL WEATHER SERVICE BOISE ID
100 AM MST WED FEB 10 2016

NOTE: "FAIR" INDICATES FEW OR NO CLOUDS BELOW 12000 FEET
WITH NO SIGNIFICANT WEATHER AND/OR OBSTRUCTIONS TO VISIBILITY

IDZ012-014-100900-
SOUTHWEST IDAHO


CITY           SKY/WX    TMP DP  RH WIND       PRES   REMARKS
BOISE          PTCLDY    29  27  92 W5        30.45R FOG     WCI  24
CALDWELL       PTCLDY    27  26  96 CALM      30.47S FOG
MOUNTAIN HOME  CLEAR     28  25  90 E3        30.43S
$$

IDZ016-017-100900-
SOUTHCENTRAL IDAHO


CITY           SKY/WX    TMP DP  RH WIND       PRES   REMARKS
BURLEY         CLEAR     26  24  92 NE8       30.37F WCI  18
JEROME         CLEAR     24  20  84 NE17      30.40S WCI  11
TWIN FALLS     PTCLDY    26  24  92 E6        30.39F FOG     WCI  19
$$

IDZ019>023-100900-
SOUTHEAST IDAHO


CITY           SKY/WX    TMP DP  RH WIND       PRES   REMARKS
IDAHO FALLS    FOG       13  10  88 N6        30.44F VSB 3/4 WCI   4
POCATELLO      FOG       19  18  95 CALM      30.43F VSB 1/4
REXBURG        CLOUDY     7   4  87 NE3       30.43F
$$

IDZ006-010-011-018-031-032-100900-
CENTRAL IDAHO MOUNTAINS


CITY           SKY/WX    TMP DP  RH WIND       PRES   REMARKS
MCCALL         FOG       20  17  88 CALM      30.35S VSB 1/4
HAILEY         PTCLDY    27  19  74 NW7       30.42S WCI  19
STANLEY          N/A     11   5  77 CALM      30.42S
SALMON         CLOUDY     9   3  78 CALM      30.43F
CHALLIS        FOG       10   8  92 CALM      30.40F VSB 1/4
$$

IDZ002-004-006-007-026-100900-
NORTHERN IDAHO


CITY           SKY/WX    TMP DP  RH WIND       PRES   REMARKS
LEWISTON       CLEAR     46  32  58 SE7       30.26F
LOWELL           N/A     34  31  88 NW5       30.36R WCI  30
COEUR D`ALENE  PTCLDY    30  27  86 CALM      30.23F
MULLAN PASS    MOCLDY    41  26  55 W8        30.24S
$$



USA.gov is the U.S. government's official web portal to all federal, state and local government web resources and services.